Time,TemperatureF,DewpointF,PressureIn,WindDirection,WindDirectionDegrees,WindSpeedMPH,WindSpeedGustMPH,Humidity,HourlyPrecipIn,Conditions,Clouds,dailyrainin,SoftwareType,DateUTC
2013-11-29 00:04:00,27.0,16.3,30.06,NW,315,0.0,0.0,64,0.00,,,0.00,WUHU21623XXSP,2013-11-29 08:04:00,
2013-11-29 00:09:00,26.6,16.0,30.06,NW,315,0.0,0.0,64,0.00,,,0.00,WUHU21623XXSP,2013-11-29 08:09:00,
2013-11-29 00:14:00,26.4,15.8,30.05,NW,315,0.0,0.0,64,0.00,,,0.00,WUHU21623XXSP,2013-11-29 08:14:00,
2013-11-29 00:19:00,26.4,15.8,30.05,WNW,292,0.0,0.0,64,0.00,,,0.00,WUHU21623XXSP,2013-11-29 08:19:00,
2013-11-29 00:24:00,26.4,15.8,30.05,WNW,292,0.0,0.0,64,0.00,,,0.00,WUHU21623XXSP,2013-11-29 08:24:00,
2013-11-29 00:29:00,26.2,15.6,30.06,West,270,0.0,0.0,64,0.00,,,0.00,WUHU21623XXSP,2013-11-29 08:29:00,
2013-11-29 00:34:00,25.9,15.8,30.05,West,270,0.0,0.0,65,0.00,,,0.00,WUHU21623XXSP,2013-11-29 08:34:00,
2013-11-29 00:39:00,25.9,15.7,30.05,West,270,0.0,0.0,65,0.00,,,0.00,WUHU21623XXSP,2013-11-29 08:39:00,
2013-11-29 00:44:00,25.7,15.5,30.05,West,270,0.0,0.0,65,0.00,,,0.00,WUHU21623XXSP,2013-11-29 08:44:00,
2013-11-29 00:49:00,25.5,15.7,30.05,ESE,112,0.0,0.0,66,0.00,,,0.00,WUHU21623XXSP,2013-11-29 08:49:00,
2013-11-29 00:54:00,25.5,15.7,30.06,ESE,112,0.0,0.0,66,0.00,,,0.00,WUHU21623XXSP,2013-11-29 08:54:00,
2013-11-29 01:00:00,25.3,15.5,30.06,SW,225,0.0,0.0,66,0.00,,,0.00,WUHU21623XXSP,2013-11-29 09:00:00,
2013-11-29 01:05:00,25.3,15.5,30.06,SW,225,0.0,0.0,66,0.00,,,0.00,WUHU21623XXSP,2013-11-29 09:05:00,
2013-11-29 01:11:00,25.2,15.3,30.06,SW,225,0.0,0.0,66,0.00,,,0.00,WUHU21623XXSP,2013-11-29 09:11:00,
2013-11-29 01:16:00,25.0,15.1,30.06,SW,225,0.0,0.0,66,0.00,,,0.00,WUHU21623XXSP,2013-11-29 09:16:00,
2013-11-29 01:22:00,25.0,15.1,30.06,SW,225,0.0,0.0,66,0.00,,,0.00,WUHU21623XXSP,2013-11-29 09:22:00,
2013-11-29 01:27:00,24.6,15.1,30.06,SW,225,0.0,0.0,66,0.00,,,0.00,WUHU21623XXSP,2013-11-29 09:27:00,
2013-11-29 01:32:00,24.6,14.8,30.06,SSE,157,0.0,0.0,66,0.00,,,0.00,WUHU21623XXSP,2013-11-29 09:32:00,
2013-11-29 01:37:00,24.4,14.6,30.06,SSE,157,0.0,0.0,66,0.00,,,0.00,WUHU21623XXSP,2013-11-29 09:37:00,
2013-11-29 01:42:00,24.3,14.4,30.06,SSE,157,0.0,0.0,66,0.00,,,0.00,WUHU21623XXSP,2013-11-29 09:42:00,
2013-11-29 01:47:00,24.1,14.3,30.07,SSE,157,0.0,0.0,66,0.00,,,0.00,WUHU21623XXSP,2013-11-29 09:47:00,
2013-11-29 01:52:00,23.9,14.5,30.07,SSE,157,0.0,0.0,67,0.00,,,0.00,WUHU21623XXSP,2013-11-29 09:52:00,
2013-11-29 01:57:00,23.9,14.5,30.07,South,180,0.0,0.0,67,0.00,,,0.00,WUHU21623XXSP,2013-11-29 09:57:00,
2013-11-29 02:02:00,23.7,14.3,30.08,SW,225,0.0,0.0,67,0.00,,,0.00,WUHU21623XXSP,2013-11-29 10:02:00,
2013-11-29 02:07:00,23.5,14.1,30.08,West,270,0.0,0.0,67,0.00,,,0.00,WUHU21623XXSP,2013-11-29 10:07:00,
2013-11-29 02:12:00,23.5,14.1,30.07,NNW,337,0.0,0.0,67,0.00,,,0.00,WUHU21623XXSP,2013-11-29 10:12:00,
2013-11-29 02:17:00,23.4,14.0,30.07,NW,315,0.0,0.0,67,0.00,,,0.00,WUHU21623XXSP,2013-11-29 10:17:00,
2013-11-29 02:24:00,23.2,13.8,30.07,NW,315,0.0,0.0,67,0.00,,,0.00,WUHU21623XXSP,2013-11-29 10:24:00,
2013-11-29 02:29:00,23.0,13.6,30.07,NW,315,0.0,0.0,67,0.00,,,0.00,WUHU21623XXSP,2013-11-29 10:29:00,
2013-11-29 02:34:00,22.8,13.6,30.07,NW,315,0.0,0.0,67,0.00,,,0.00,WUHU21623XXSP,2013-11-29 10:34:00,
2013-11-29 02:39:00,22.8,13.8,30.08,NW,315,0.0,0.0,68,0.00,,,0.00,WUHU21623XXSP,2013-11-29 10:39:00,
2013-11-29 02:49:00,22.6,13.6,30.08,NNW,337,0.0,0.0,68,0.00,,,0.00,WUHU21623XXSP,2013-11-29 10:49:00,
2013-11-29 02:54:00,22.6,13.6,30.07,NE,45,0.0,0.0,68,0.00,,,0.00,WUHU21623XXSP,2013-11-29 10:54:00,
2013-11-29 02:59:00,22.5,13.5,30.07,NE,45,0.0,0.0,68,0.00,,,0.00,WUHU21623XXSP,2013-11-29 10:59:00,
2013-11-29 03:04:00,22.3,13.3,30.08,NE,45,0.0,0.0,68,0.00,,,0.00,WUHU21623XXSP,2013-11-29 11:04:00,
2013-11-29 03:09:00,22.1,13.1,30.07,WSW,247,0.0,0.0,68,0.00,,,0.00,WUHU21623XXSP,2013-11-29 11:09:00,
2013-11-29 03:14:00,22.1,13.1,30.07,WSW,247,0.0,0.0,68,0.00,,,0.00,WUHU21623XXSP,2013-11-29 11:14:00,
2013-11-29 03:19:00,21.9,12.9,30.08,WNW,292,1.1,1.1,68,0.00,,,0.00,WUHU21623XXSP,2013-11-29 11:19:00,
2013-11-29 03:28:00,21.9,13.3,30.08,WNW,292,0.0,0.0,69,0.00,,,0.00,WUHU21623XXSP,2013-11-29 11:28:00,
2013-11-29 03:33:00,21.9,13.3,30.08,NW,315,0.0,0.0,69,0.00,,,0.00,WUHU21623XXSP,2013-11-29 11:33:00,
2013-11-29 03:38:00,21.9,13.3,30.07,NW,315,0.0,0.0,69,0.00,,,0.00,WUHU21623XXSP,2013-11-29 11:38:00,
2013-11-29 03:45:00,21.7,13.5,30.08,South,180,0.0,0.0,70,0.00,,,0.00,WUHU21623XXSP,2013-11-29 11:45:00,
2013-11-29 03:50:00,21.7,13.5,30.08,South,180,0.0,0.0,70,0.00,,,0.00,WUHU21623XXSP,2013-11-29 11:50:00,
2013-11-29 03:55:00,21.7,13.5,30.08,South,180,0.0,0.0,70,0.00,,,0.00,WUHU21623XXSP,2013-11-29 11:55:00,
2013-11-29 04:00:00,21.6,13.3,30.08,ESE,112,0.0,0.0,70,0.00,,,0.00,WUHU21623XXSP,2013-11-29 12:00:00,
2013-11-29 04:05:00,21.4,13.1,30.08,SE,135,0.0,0.0,70,0.00,,,0.00,WUHU21623XXSP,2013-11-29 12:05:00,
2013-11-29 04:10:00,21.4,13.1,30.08,SSE,157,0.0,0.0,70,0.00,,,0.00,WUHU21623XXSP,2013-11-29 12:10:00,
2013-11-29 04:15:00,21.0,12.7,30.08,NE,45,0.0,0.0,70,0.00,,,0.00,WUHU21623XXSP,2013-11-29 12:15:00,
2013-11-29 04:21:00,21.0,12.7,30.08,ENE,67,0.0,0.0,70,0.00,,,0.00,WUHU21623XXSP,2013-11-29 12:21:00,
2013-11-29 04:26:00,21.0,12.7,30.08,ENE,67,0.0,0.0,70,0.00,,,0.00,WUHU21623XXSP,2013-11-29 12:26:00,
2013-11-29 04:34:00,20.8,12.6,30.08,ENE,67,0.0,0.0,70,0.00,,,0.00,WUHU21623XXSP,2013-11-29 12:34:00,
2013-11-29 04:39:00,20.8,12.6,30.08,NNW,337,0.0,0.0,70,0.00,,,0.00,WUHU21623XXSP,2013-11-29 12:39:00,
2013-11-29 04:45:00,20.5,12.2,30.08,NNW,337,0.0,0.0,70,0.00,,,0.00,WUHU21623XXSP,2013-11-29 12:45:00,
2013-11-29 04:50:00,20.5,12.2,30.08,NNW,337,0.0,0.0,71,0.00,,,0.00,WUHU21623XXSP,2013-11-29 12:50:00,
2013-11-29 04:55:00,20.3,12.0,30.09,North,0,0.0,0.0,70,0.00,,,0.00,WUHU21623XXSP,2013-11-29 12:55:00,
2013-11-29 05:00:00,20.3,12.0,30.09,North,0,0.0,0.0,70,0.00,,,0.00,WUHU21623XXSP,2013-11-29 13:00:00,
2013-11-29 05:05:00,20.1,12.1,30.09,North,0,0.0,0.0,71,0.00,,,0.00,WUHU21623XXSP,2013-11-29 13:05:00,
2013-11-29 05:10:00,19.9,12.0,30.09,North,0,0.0,0.0,71,0.00,,,0.00,WUHU21623XXSP,2013-11-29 13:10:00,
2013-11-29 05:15:00,19.9,12.0,30.08,North,0,0.0,0.0,71,0.00,,,0.00,WUHU21623XXSP,2013-11-29 13:15:00,
2013-11-29 05:20:00,19.9,12.0,30.09,North,0,0.0,0.0,71,0.00,,,0.00,WUHU21623XXSP,2013-11-29 13:20:00,
2013-11-29 05:28:00,19.6,11.6,30.09,NNW,337,0.0,0.0,71,0.00,,,0.00,WUHU21623XXSP,2013-11-29 13:28:00,
2013-11-29 05:33:00,19.6,11.6,30.09,North,0,0.0,0.0,71,0.00,,,0.00,WUHU21623XXSP,2013-11-29 13:33:00,
2013-11-29 05:38:00,19.4,11.4,30.10,North,0,0.0,0.0,71,0.00,,,0.00,WUHU21623XXSP,2013-11-29 13:38:00,
2013-11-29 05:43:00,19.2,11.4,30.09,NNW,337,0.0,0.0,71,0.00,,,0.00,WUHU21623XXSP,2013-11-29 13:43:00,
2013-11-29 05:48:00,19.2,11.2,30.09,NNW,337,0.0,0.0,71,0.00,,,0.00,WUHU21623XXSP,2013-11-29 13:48:00,
2013-11-29 05:54:00,19.2,11.2,30.10,NNW,337,0.0,0.0,71,0.00,,,0.00,WUHU21623XXSP,2013-11-29 13:54:00,
2013-11-29 05:59:00,19.2,11.2,30.10,NNW,337,0.0,0.0,71,0.00,,,0.00,WUHU21623XXSP,2013-11-29 13:59:00,
2013-11-29 06:04:00,19.2,11.2,30.10,NNW,337,0.0,0.0,71,0.00,,,0.00,WUHU21623XXSP,2013-11-29 14:04:00,
2013-11-29 06:09:00,19.0,11.1,30.10,NNE,22,0.0,0.0,71,0.00,,,0.00,WUHU21623XXSP,2013-11-29 14:09:00,
2013-11-29 06:14:00,19.0,11.1,30.10,NNE,22,0.0,0.0,71,0.00,,,0.00,WUHU21623XXSP,2013-11-29 14:14:00,
2013-11-29 06:21:00,18.9,10.9,30.11,WNW,292,0.0,0.0,71,0.00,,,0.00,WUHU21623XXSP,2013-11-29 14:21:00,
2013-11-29 06:28:00,18.7,10.8,30.11,WNW,292,0.0,0.0,71,0.00,,,0.00,WUHU21623XXSP,2013-11-29 14:28:00,
2013-11-29 06:33:00,18.7,10.8,30.11,South,180,0.0,0.0,72,0.00,,,0.00,WUHU21623XXSP,2013-11-29 14:33:00,
2013-11-29 06:41:00,18.5,10.9,30.12,East,90,0.0,0.0,72,0.00,,,0.00,WUHU21623XXSP,2013-11-29 14:41:00,
2013-11-29 06:46:00,18.5,10.9,30.11,ESE,112,0.0,0.0,72,0.00,,,0.00,WUHU21623XXSP,2013-11-29 14:46:00,
2013-11-29 06:58:00,18.3,10.7,30.12,ESE,112,0.0,0.0,72,0.00,,,0.00,WUHU21623XXSP,2013-11-29 14:58:00,
2013-11-29 07:03:00,18.3,10.7,30.12,ESE,112,0.0,0.0,72,0.00,,,0.00,WUHU21623XXSP,2013-11-29 15:03:00,
2013-11-29 07:08:00,18.1,10.6,30.12,ESE,112,0.0,0.0,72,0.00,,,0.00,WUHU21623XXSP,2013-11-29 15:08:00,
2013-11-29 07:14:00,18.1,10.6,30.13,ESE,112,0.0,0.0,72,0.00,,,0.00,WUHU21623XXSP,2013-11-29 15:14:00,
2013-11-29 07:19:00,18.1,10.6,30.12,ESE,112,0.0,0.0,72,0.00,,,0.00,WUHU21623XXSP,2013-11-29 15:19:00,
2013-11-29 07:28:00,18.1,10.6,30.13,SE,135,0.0,0.0,72,0.00,,,0.00,WUHU21623XXSP,2013-11-29 15:28:00,
2013-11-29 07:33:00,18.1,10.6,30.13,SE,135,0.0,0.0,72,0.00,,,0.00,WUHU21623XXSP,2013-11-29 15:33:00,
2013-11-29 07:38:00,18.1,10.6,30.13,SE,135,0.0,0.0,72,0.00,,,0.00,WUHU21623XXSP,2013-11-29 15:38:00,
2013-11-29 07:44:00,18.3,11.0,30.13,SE,135,0.0,0.0,73,0.00,,,0.00,WUHU21623XXSP,2013-11-29 15:44:00,
2013-11-29 07:49:00,18.5,11.0,30.13,SE,135,0.0,0.0,73,0.00,,,0.00,WUHU21623XXSP,2013-11-29 15:49:00,
2013-11-29 07:54:00,18.7,11.4,30.13,SE,135,0.0,0.0,73,0.00,,,0.00,WUHU21623XXSP,2013-11-29 15:54:00,
2013-11-29 07:59:00,18.7,11.4,30.13,SE,135,0.0,0.0,73,0.00,,,0.00,WUHU21623XXSP,2013-11-29 15:59:00,
2013-11-29 08:08:00,19.6,12.5,30.13,SSW,202,0.0,0.0,74,0.00,,,0.00,WUHU21623XXSP,2013-11-29 16:08:00,
2013-11-29 08:13:00,19.9,13.2,30.14,SSW,202,0.0,0.0,75,0.00,,,0.00,WUHU21623XXSP,2013-11-29 16:13:00,
2013-11-29 08:18:00,20.1,13.4,30.13,East,90,0.0,0.0,75,0.00,,,0.00,WUHU21623XXSP,2013-11-29 16:18:00,
2013-11-29 08:23:00,20.8,13.7,30.13,East,90,0.0,0.0,75,0.00,,,0.00,WUHU21623XXSP,2013-11-29 16:23:00,
2013-11-29 08:28:00,20.8,14.4,30.13,East,90,0.0,0.0,76,0.00,,,0.00,WUHU21623XXSP,2013-11-29 16:28:00,
2013-11-29 08:33:00,21.7,15.6,30.13,SSE,157,0.0,0.0,77,0.00,,,0.00,WUHU21623XXSP,2013-11-29 16:33:00,
2013-11-29 08:39:00,23.9,17.8,30.13,SSE,157,0.0,0.0,80,0.00,,,0.00,WUHU21623XXSP,2013-11-29 16:39:00,
2013-11-29 08:44:00,24.6,19.7,30.13,ESE,112,0.0,0.0,81,0.00,,,0.00,WUHU21623XXSP,2013-11-29 16:44:00,
2013-11-29 08:49:00,26.2,21.1,30.13,SSW,202,0.0,0.0,81,0.00,,,0.00,WUHU21623XXSP,2013-11-29 16:49:00,
2013-11-29 08:54:00,27.1,22.3,30.13,East,90,0.0,0.0,82,0.00,,,0.00,WUHU21623XXSP,2013-11-29 16:54:00,
2013-11-29 09:00:00,28.2,23.1,30.13,East,90,0.0,0.0,81,0.00,,,0.00,WUHU21623XXSP,2013-11-29 17:00:00,
2013-11-29 09:05:00,29.1,24.0,30.13,SSW,202,0.0,0.0,81,0.00,,,0.00,WUHU21623XXSP,2013-11-29 17:05:00,
2013-11-29 09:13:00,30.7,25.3,30.13,WSW,247,0.0,0.0,80,0.00,,,0.00,WUHU21623XXSP,2013-11-29 17:13:00,
2013-11-29 09:19:00,31.8,26.1,30.13,South,180,0.0,0.0,79,0.00,,,0.00,WUHU21623XXSP,2013-11-29 17:19:00,
2013-11-29 09:30:00,33.3,27.1,30.13,NNW,337,0.0,0.0,78,0.00,,,0.00,WUHU21623XXSP,2013-11-29 17:30:00,
2013-11-29 09:38:00,34.2,27.6,30.13,ESE,112,0.0,0.0,77,0.00,,,0.00,WUHU21623XXSP,2013-11-29 17:38:00,
2013-11-29 09:47:00,34.9,27.7,30.13,WSW,247,0.0,0.0,75,0.00,,,0.00,WUHU21623XXSP,2013-11-29 17:47:00,
2013-11-29 09:52:00,35.4,28.2,30.14,West,270,0.0,0.0,75,0.00,,,0.00,WUHU21623XXSP,2013-11-29 17:52:00,
2013-11-29 09:57:00,35.8,28.3,30.13,East,90,0.0,0.0,74,0.00,,,0.00,WUHU21623XXSP,2013-11-29 17:57:00,
2013-11-29 10:02:00,36.5,28.8,30.13,West,270,0.0,0.0,74,0.00,,,0.00,WUHU21623XXSP,2013-11-29 18:02:00,
2013-11-29 10:11:00,37.0,29.5,30.13,SE,135,0.0,0.0,74,0.00,,,0.00,WUHU21623XXSP,2013-11-29 18:11:00,
2013-11-29 10:16:00,37.6,29.7,30.13,SSW,202,0.0,0.0,73,0.00,,,0.00,WUHU21623XXSP,2013-11-29 18:16:00,
2013-11-29 10:21:00,38.5,30.2,30.13,West,270,0.0,0.0,72,0.00,,,0.00,WUHU21623XXSP,2013-11-29 18:21:00,
2013-11-29 10:26:00,39.4,30.4,30.13,North,0,0.0,0.0,71,0.00,,,0.00,WUHU21623XXSP,2013-11-29 18:26:00,
2013-11-29 10:31:00,39.7,30.7,30.13,WNW,292,0.0,0.0,70,0.00,,,0.00,WUHU21623XXSP,2013-11-29 18:31:00,
2013-11-29 10:36:00,40.5,31.5,30.13,WSW,247,0.0,0.0,70,0.00,,,0.00,WUHU21623XXSP,2013-11-29 18:36:00,
2013-11-29 10:41:00,41.0,31.6,30.13,SW,225,0.0,0.0,69,0.00,,,0.00,WUHU21623XXSP,2013-11-29 18:41:00,
2013-11-29 10:46:00,41.7,31.9,30.13,SE,135,0.0,0.0,68,0.00,,,0.00,WUHU21623XXSP,2013-11-29 18:46:00,
2013-11-29 10:51:00,42.4,32.3,30.13,West,270,0.0,0.0,67,0.00,,,0.00,WUHU21623XXSP,2013-11-29 18:51:00,
2013-11-29 10:56:00,43.0,32.4,30.13,West,270,0.0,0.0,66,0.00,,,0.00,WUHU21623XXSP,2013-11-29 18:56:00,
2013-11-29 11:02:00,44.4,33.4,30.13,West,270,0.0,0.0,65,0.00,,,0.00,WUHU21623XXSP,2013-11-29 19:02:00,
2013-11-29 11:07:00,45.0,33.5,30.13,North,0,0.0,0.0,64,0.00,,,0.00,WUHU21623XXSP,2013-11-29 19:07:00,
2013-11-29 11:12:00,45.7,34.2,30.13,WNW,292,0.0,0.0,64,0.00,,,0.00,WUHU21623XXSP,2013-11-29 19:12:00,
2013-11-29 11:17:00,46.2,33.9,30.13,WNW,292,0.7,0.7,62,0.00,,,0.00,WUHU21623XXSP,2013-11-29 19:17:00,
2013-11-29 11:22:00,47.1,34.8,30.13,NNW,337,0.0,0.7,62,0.00,,,0.00,WUHU21623XXSP,2013-11-29 19:22:00,
2013-11-29 11:27:00,47.8,34.7,30.13,West,270,0.0,0.0,60,0.00,,,0.00,WUHU21623XXSP,2013-11-29 19:27:00,
2013-11-29 11:32:00,48.9,34.4,30.13,WSW,247,0.0,0.0,58,0.00,,,0.00,WUHU21623XXSP,2013-11-29 19:32:00,
2013-11-29 11:41:00,49.8,34.7,30.13,WNW,292,2.2,2.2,56,0.00,,,0.00,WUHU21623XXSP,2013-11-29 19:41:00,
2013-11-29 11:46:00,50.2,34.6,30.12,NW,315,0.0,2.2,55,0.00,,,0.00,WUHU21623XXSP,2013-11-29 19:46:00,
2013-11-29 11:51:00,50.4,34.8,30.12,NNW,337,0.0,0.0,55,0.00,,,0.00,WUHU21623XXSP,2013-11-29 19:51:00,
2013-11-29 11:56:00,50.7,34.6,30.12,WNW,292,0.0,0.0,54,0.00,,,0.00,WUHU21623XXSP,2013-11-29 19:56:00,
2013-11-29 12:01:00,50.7,34.6,30.12,WNW,292,0.0,0.0,54,0.00,,,0.00,WUHU21623XXSP,2013-11-29 20:01:00,
2013-11-29 12:06:00,51.4,35.3,30.12,WSW,247,1.1,3.4,54,0.00,,,0.00,WUHU21623XXSP,2013-11-29 20:06:00,
2013-11-29 12:11:00,52.0,35.3,30.12,SW,225,0.9,3.4,53,0.00,,,0.00,WUHU21623XXSP,2013-11-29 20:11:00,
2013-11-29 12:19:00,54.0,36.0,30.11,West,270,0.0,0.9,51,0.00,,,0.00,WUHU21623XXSP,2013-11-29 20:19:00,
2013-11-29 12:24:00,54.1,35.9,30.11,West,270,0.0,0.0,50,0.00,,,0.00,WUHU21623XXSP,2013-11-29 20:24:00,
2013-11-29 12:29:00,54.5,35.7,30.10,NW,315,4.7,4.7,49,0.00,,,0.00,WUHU21623XXSP,2013-11-29 20:29:00,
2013-11-29 12:36:00,54.5,35.1,30.10,West,270,1.6,4.7,48,0.00,,,0.00,WUHU21623XXSP,2013-11-29 20:36:00,
2013-11-29 12:41:00,54.5,35.1,30.10,WNW,292,0.9,1.6,48,0.00,,,0.00,WUHU21623XXSP,2013-11-29 20:41:00,
2013-11-29 12:46:00,55.0,35.3,30.10,WSW,247,2.2,2.2,48,0.00,,,0.00,WUHU21623XXSP,2013-11-29 20:46:00,
2013-11-29 12:51:00,55.0,35.0,30.10,SW,225,2.5,2.5,47,0.00,,,0.00,WUHU21623XXSP,2013-11-29 20:51:00,
2013-11-29 12:56:00,55.6,35.2,30.09,SSW,202,2.9,2.9,47,0.00,,,0.00,WUHU21623XXSP,2013-11-29 20:56:00,
2013-11-29 13:08:00,56.8,36.8,30.09,West,270,0.0,0.0,47,0.00,,,0.00,WUHU21623XXSP,2013-11-29 21:08:00,
2013-11-29 13:13:00,57.0,36.4,30.09,WNW,292,0.9,0.9,46,0.00,,,0.00,WUHU21623XXSP,2013-11-29 21:13:00,
2013-11-29 13:19:00,57.7,36.4,30.09,WNW,292,0.0,0.9,45,0.00,,,0.00,WUHU21623XXSP,2013-11-29 21:19:00,
2013-11-29 13:24:00,58.1,36.6,30.09,SSW,202,0.9,0.9,45,0.00,,,0.00,WUHU21623XXSP,2013-11-29 21:24:00,
2013-11-29 13:29:00,58.5,36.5,30.09,WNW,292,2.0,2.0,44,0.00,,,0.00,WUHU21623XXSP,2013-11-29 21:29:00,
2013-11-29 13:34:00,58.6,36.1,30.09,SW,225,0.0,2.0,43,0.00,,,0.00,WUHU21623XXSP,2013-11-29 21:34:00,
2013-11-29 13:39:00,59.0,36.4,30.08,NW,315,0.0,0.0,43,0.00,,,0.00,WUHU21623XXSP,2013-11-29 21:39:00,
2013-11-29 13:44:00,59.2,35.4,30.08,WNW,292,1.8,2.5,41,0.00,,,0.00,WUHU21623XXSP,2013-11-29 21:44:00,
2013-11-29 13:49:00,58.8,35.3,30.08,WNW,292,0.0,2.5,41,0.00,,,0.00,WUHU21623XXSP,2013-11-29 21:49:00,
2013-11-29 13:54:00,58.6,34.4,30.08,North,0,2.2,2.2,40,0.00,,,0.00,WUHU21623XXSP,2013-11-29 21:54:00,
2013-11-29 13:59:00,57.9,34.1,30.08,NW,315,1.8,2.2,40,0.00,,,0.00,WUHU21623XXSP,2013-11-29 21:59:00,
2013-11-29 14:04:00,57.6,33.4,30.08,WNW,292,0.0,1.8,40,0.00,,,0.00,WUHU21623XXSP,2013-11-29 22:04:00,
2013-11-29 14:09:00,57.0,32.9,30.08,WNW,292,3.1,3.1,40,0.00,,,0.00,WUHU21623XXSP,2013-11-29 22:09:00,
2013-11-29 14:15:00,56.1,32.1,30.08,NW,315,4.5,4.5,40,0.00,,,0.00,WUHU21623XXSP,2013-11-29 22:15:00,
2013-11-29 14:20:00,55.6,31.6,30.08,West,270,0.0,4.5,40,0.00,,,0.00,WUHU21623XXSP,2013-11-29 22:20:00,
2013-11-29 14:27:00,54.9,31.5,30.08,NW,315,3.6,3.6,41,0.00,,,0.00,WUHU21623XXSP,2013-11-29 22:27:00,
2013-11-29 14:33:00,54.5,31.2,30.08,West,270,0.0,3.6,41,0.00,,,0.00,WUHU21623XXSP,2013-11-29 22:33:00,
2013-11-29 14:38:00,54.1,30.9,30.08,NW,315,3.8,3.8,41,0.00,,,0.00,WUHU21623XXSP,2013-11-29 22:38:00,
2013-11-29 14:43:00,53.8,31.1,30.08,WNW,292,0.0,3.8,42,0.00,,,0.00,WUHU21623XXSP,2013-11-29 22:43:00,
2013-11-29 14:48:00,53.4,30.8,30.08,WNW,292,0.0,0.0,42,0.00,,,0.00,WUHU21623XXSP,2013-11-29 22:48:00,
2013-11-29 14:53:00,53.2,30.6,30.08,WNW,292,0.0,0.0,42,0.00,,,0.00,WUHU21623XXSP,2013-11-29 22:53:00,
2013-11-29 14:58:00,52.9,30.3,30.08,NW,315,3.8,3.8,42,0.00,,,0.00,WUHU21623XXSP,2013-11-29 22:58:00,
2013-11-29 15:03:00,52.7,30.7,30.08,North,0,0.0,3.8,43,0.00,,,0.00,WUHU21623XXSP,2013-11-29 23:03:00,
2013-11-29 15:08:00,52.5,30.5,30.08,WNW,292,2.9,2.9,43,0.00,,,0.00,WUHU21623XXSP,2013-11-29 23:08:00,
2013-11-29 15:15:00,52.2,30.2,30.08,West,270,0.9,2.9,43,0.00,,,0.00,WUHU21623XXSP,2013-11-29 23:15:00,
2013-11-29 15:20:00,52.0,30.1,30.08,NNW,337,0.9,0.9,43,0.00,,,0.00,WUHU21623XXSP,2013-11-29 23:20:00,
2013-11-29 15:25:00,51.8,29.9,30.08,NW,315,3.4,3.4,43,0.00,,,0.00,WUHU21623XXSP,2013-11-29 23:25:00,
2013-11-29 15:30:00,51.6,30.3,30.08,West,270,0.0,3.4,44,0.00,,,0.00,WUHU21623XXSP,2013-11-29 23:30:00,
2013-11-29 15:35:00,51.4,30.1,30.08,WNW,292,2.7,2.7,44,0.00,,,0.00,WUHU21623XXSP,2013-11-29 23:35:00,
2013-11-29 15:40:00,51.3,30.0,30.08,WNW,292,1.6,2.7,44,0.00,,,0.00,WUHU21623XXSP,2013-11-29 23:40:00,
2013-11-29 15:45:00,50.9,29.6,30.08,WNW,292,4.0,4.0,44,0.00,,,0.00,WUHU21623XXSP,2013-11-29 23:45:00,
2013-11-29 15:50:00,50.7,29.6,30.08,NW,315,0.9,4.0,44,0.00,,,0.00,WUHU21623XXSP,2013-11-29 23:50:00,
2013-11-29 15:55:00,50.5,29.9,30.07,West,270,1.3,4.3,45,0.00,,,0.00,WUHU21623XXSP,2013-11-29 23:55:00,
2013-11-29 16:00:00,50.4,29.9,30.07,NNW,337,0.9,4.3,45,0.00,,,0.00,WUHU21623XXSP,2013-11-30 00:00:00,
2013-11-29 16:05:00,50.2,29.6,30.08,WNW,292,0.9,1.3,45,0.00,,,0.00,WUHU21623XXSP,2013-11-30 00:05:00,
2013-11-29 16:10:00,50.2,29.6,30.08,West,270,0.0,0.9,45,0.00,,,0.00,WUHU21623XXSP,2013-11-30 00:10:00,
2013-11-29 16:15:00,50.0,29.4,30.08,WNW,292,0.0,0.0,45,0.00,,,0.00,WUHU21623XXSP,2013-11-30 00:15:00,
2013-11-29 16:25:00,49.3,29.2,30.08,NW,315,0.0,0.0,46,0.00,,,0.00,WUHU21623XXSP,2013-11-30 00:25:00,
2013-11-29 16:32:00,48.7,28.7,30.08,WNW,292,0.7,0.7,46,0.00,,,0.00,WUHU21623XXSP,2013-11-30 00:32:00,
2013-11-29 16:37:00,48.4,28.4,30.08,WNW,292,0.9,0.9,46,0.00,,,0.00,WUHU21623XXSP,2013-11-30 00:37:00,
2013-11-29 16:42:00,47.8,27.9,30.08,WNW,292,0.0,1.6,46,0.00,,,0.00,WUHU21623XXSP,2013-11-30 00:42:00,
2013-11-29 16:47:00,47.5,27.6,30.08,NNW,337,1.6,1.6,46,0.00,,,0.00,WUHU21623XXSP,2013-11-30 00:47:00,
2013-11-29 16:52:00,47.1,27.2,30.09,NW,315,3.6,3.6,46,0.00,,,0.00,WUHU21623XXSP,2013-11-30 00:52:00,
2013-11-29 16:57:00,46.6,26.8,30.09,WNW,292,1.3,3.6,47,0.00,,,0.00,WUHU21623XXSP,2013-11-30 00:57:00,
2013-11-29 17:02:00,46.0,26.8,30.09,WNW,292,0.9,3.6,47,0.00,,,0.00,WUHU21623XXSP,2013-11-30 01:02:00,
2013-11-29 17:08:00,45.1,26.0,30.09,NW,315,1.3,1.6,47,0.00,,,0.00,WUHU21623XXSP,2013-11-30 01:08:00,
2013-11-29 17:14:00,44.4,25.9,30.09,WNW,292,2.5,2.5,48,0.00,,,0.00,WUHU21623XXSP,2013-11-30 01:14:00,
2013-11-29 17:19:00,43.9,25.6,30.09,WNW,292,3.6,3.6,48,0.00,,,0.00,WUHU21623XXSP,2013-11-30 01:19:00,
2013-11-29 17:25:00,43.5,25.6,30.09,WNW,292,2.2,3.6,49,0.00,,,0.00,WUHU21623XXSP,2013-11-30 01:25:00,
2013-11-29 17:32:00,43.0,25.1,30.10,NW,315,2.9,2.9,49,0.00,,,0.00,WUHU21623XXSP,2013-11-30 01:32:00,
2013-11-29 17:37:00,42.6,25.3,30.10,WNW,292,2.2,2.9,50,0.00,,,0.00,WUHU21623XXSP,2013-11-30 01:37:00,
2013-11-29 17:42:00,42.1,24.8,30.10,WNW,292,2.5,2.5,50,0.00,,,0.00,WUHU21623XXSP,2013-11-30 01:42:00,
2013-11-29 17:47:00,41.9,24.6,30.10,West,270,2.2,2.5,50,0.00,,,0.00,WUHU21623XXSP,2013-11-30 01:47:00,
2013-11-29 17:53:00,41.2,24.3,30.11,NNE,22,0.0,2.2,51,0.00,,,0.00,WUHU21623XXSP,2013-11-30 01:53:00,
2013-11-29 17:58:00,40.8,24.4,30.10,WNW,292,0.0,0.0,52,0.00,,,0.00,WUHU21623XXSP,2013-11-30 01:58:00,
2013-11-29 18:03:00,40.8,24.4,30.11,WNW,292,0.0,0.0,52,0.00,,,0.00,WUHU21623XXSP,2013-11-30 02:03:00,
2013-11-29 18:10:00,40.6,24.7,30.11,SSE,157,0.0,0.0,53,0.00,,,0.00,WUHU21623XXSP,2013-11-30 02:10:00,
2013-11-29 18:15:00,40.3,24.4,30.11,SE,135,0.0,0.0,53,0.00,,,0.00,WUHU21623XXSP,2013-11-30 02:15:00,
2013-11-29 18:21:00,39.9,24.1,30.11,NE,45,0.0,0.0,53,0.00,,,0.00,WUHU21623XXSP,2013-11-30 02:21:00,
2013-11-29 18:27:00,39.6,23.7,30.12,SE,135,0.0,0.0,53,0.00,,,0.00,WUHU21623XXSP,2013-11-30 02:27:00,
2013-11-29 18:34:00,39.0,23.2,30.12,ESE,112,0.0,0.0,53,0.00,,,0.00,WUHU21623XXSP,2013-11-30 02:34:00,
2013-11-29 18:40:00,38.7,22.9,30.12,ENE,67,0.0,0.0,53,0.00,,,0.00,WUHU21623XXSP,2013-11-30 02:40:00,
2013-11-29 18:45:00,38.3,22.6,30.13,ESE,112,0.0,0.0,53,0.00,,,0.00,WUHU21623XXSP,2013-11-30 02:45:00,
2013-11-29 18:51:00,37.9,22.3,30.12,NE,45,0.0,0.0,53,0.00,,,0.00,WUHU21623XXSP,2013-11-30 02:51:00,
2013-11-29 18:56:00,37.6,21.5,30.13,ENE,67,0.0,0.0,52,0.00,,,0.00,WUHU21623XXSP,2013-11-30 02:56:00,
2013-11-29 19:02:00,37.2,21.6,30.13,SE,135,0.0,0.0,53,0.00,,,0.00,WUHU21623XXSP,2013-11-30 03:02:00,
2013-11-29 19:08:00,36.7,21.1,30.13,SE,135,0.0,0.0,53,0.00,,,0.00,WUHU21623XXSP,2013-11-30 03:08:00,
2013-11-29 19:17:00,36.1,21.1,30.13,SE,135,0.0,0.0,54,0.00,,,0.00,WUHU21623XXSP,2013-11-30 03:17:00,
2013-11-29 19:22:00,35.8,20.8,30.13,NNW,337,0.0,0.0,54,0.00,,,0.00,WUHU21623XXSP,2013-11-30 03:22:00,
2013-11-29 19:27:00,35.8,20.8,30.13,NNW,337,0.0,0.0,54,0.00,,,0.00,WUHU21623XXSP,2013-11-30 03:27:00,
2013-11-29 19:32:00,35.2,20.2,30.13,SSE,157,0.0,0.0,54,0.00,,,0.00,WUHU21623XXSP,2013-11-30 03:32:00,
2013-11-29 19:37:00,34.9,20.3,30.14,SSE,157,0.0,0.0,55,0.00,,,0.00,WUHU21623XXSP,2013-11-30 03:37:00,
2013-11-29 19:42:00,34.3,19.9,30.14,SSE,157,0.0,0.0,55,0.00,,,0.00,WUHU21623XXSP,2013-11-30 03:42:00,
2013-11-29 19:47:00,34.0,19.4,30.14,NE,45,0.0,0.0,55,0.00,,,0.00,WUHU21623XXSP,2013-11-30 03:47:00,
2013-11-29 19:52:00,33.6,19.2,30.14,South,180,0.0,0.0,55,0.00,,,0.00,WUHU21623XXSP,2013-11-30 03:52:00,
2013-11-29 19:57:00,33.4,19.3,30.14,SSE,157,0.0,0.0,56,0.00,,,0.00,WUHU21623XXSP,2013-11-30 03:57:00,
2013-11-29 20:02:00,32.9,18.8,30.14,SSE,157,0.0,0.0,56,0.00,,,0.00,WUHU21623XXSP,2013-11-30 04:02:00,
2013-11-29 20:08:00,32.5,18.5,30.14,NE,45,0.0,0.0,56,0.00,,,0.00,WUHU21623XXSP,2013-11-30 04:08:00,
2013-11-29 20:13:00,32.4,18.4,30.15,NE,45,0.0,0.0,56,0.00,,,0.00,WUHU21623XXSP,2013-11-30 04:13:00,
2013-11-29 20:19:00,31.8,17.9,30.15,North,0,0.0,0.0,56,0.00,,,0.00,WUHU21623XXSP,2013-11-30 04:19:00,
2013-11-29 20:24:00,31.8,17.9,30.15,North,0,0.0,0.0,56,0.00,,,0.00,WUHU21623XXSP,2013-11-30 04:24:00,
2013-11-29 20:29:00,31.6,18.1,30.15,North,0,0.0,0.0,57,0.00,,,0.00,WUHU21623XXSP,2013-11-30 04:29:00,
2013-11-29 20:34:00,31.3,17.8,30.15,ESE,112,0.0,0.0,57,0.00,,,0.00,WUHU21623XXSP,2013-11-30 04:34:00,
2013-11-29 20:39:00,31.1,17.6,30.15,ESE,112,0.0,0.0,57,0.00,,,0.00,WUHU21623XXSP,2013-11-30 04:39:00,
2013-11-29 20:44:00,30.7,17.2,30.15,SE,135,0.0,0.0,57,0.00,,,0.00,WUHU21623XXSP,2013-11-30 04:44:00,
2013-11-29 20:49:00,30.6,17.7,30.15,ESE,112,0.0,0.0,58,0.00,,,0.00,WUHU21623XXSP,2013-11-30 04:49:00,
2013-11-29 20:59:00,30.0,17.0,30.15,South,180,0.0,0.0,58,0.00,,,0.00,WUHU21623XXSP,2013-11-30 04:59:00,
2013-11-29 21:01:00,30.0,17.0,30.15,South,180,0.0,0.0,58,0.00,,,0.00,WUHU21623XXSP,2013-11-30 05:01:00,
2013-11-29 21:02:00,30.0,17.0,30.15,South,180,0.0,0.0,58,0.00,,,0.00,WUHU21623XXSP,2013-11-30 05:02:00,
2013-11-29 21:03:00,30.0,17.0,30.15,South,180,0.0,0.0,58,0.00,,,0.00,WUHU21623XXSP,2013-11-30 05:03:00,
2013-11-29 21:08:00,29.8,17.2,30.16,NE,45,0.0,0.0,59,0.00,,,0.00,WUHU21623XXSP,2013-11-30 05:08:00,
2013-11-29 21:13:00,29.7,17.1,30.16,WNW,292,0.0,0.0,59,0.00,,,0.00,WUHU21623XXSP,2013-11-30 05:13:00,
2013-11-29 21:19:00,29.5,16.9,30.16,West,270,0.0,0.0,59,0.00,,,0.00,WUHU21623XXSP,2013-11-30 05:19:00,
2013-11-29 21:25:00,29.1,16.6,30.16,South,180,0.0,0.0,59,0.00,,,0.00,WUHU21623XXSP,2013-11-30 05:25:00,
2013-11-29 21:31:00,28.9,16.4,30.16,South,180,0.0,0.0,59,0.00,,,0.00,WUHU21623XXSP,2013-11-30 05:31:00,
2013-11-29 21:36:00,28.8,16.3,30.16,NNW,337,0.0,0.0,59,0.00,,,0.00,WUHU21623XXSP,2013-11-30 05:36:00,
2013-11-29 21:42:00,28.6,16.5,30.16,West,270,0.0,0.0,60,0.00,,,0.00,WUHU21623XXSP,2013-11-30 05:42:00,
2013-11-29 21:51:00,28.2,16.2,30.16,SW,225,0.0,0.0,60,0.00,,,0.00,WUHU21623XXSP,2013-11-30 05:51:00,
2013-11-29 21:56:00,28.2,16.2,30.17,SW,225,0.0,0.0,60,0.00,,,0.00,WUHU21623XXSP,2013-11-30 05:56:00,
2013-11-29 22:01:00,28.0,16.0,30.17,SW,225,0.0,0.0,60,0.00,,,0.00,WUHU21623XXSP,2013-11-30 06:01:00,
2013-11-29 22:08:00,27.7,15.6,30.17,SW,225,0.0,0.0,60,0.00,,,0.00,WUHU21623XXSP,2013-11-30 06:08:00,
2013-11-29 22:13:00,27.5,15.8,30.17,WSW,247,0.0,0.0,61,0.00,,,0.00,WUHU21623XXSP,2013-11-30 06:13:00,
2013-11-29 22:19:00,27.3,15.6,30.17,NE,45,0.0,0.0,61,0.00,,,0.00,WUHU21623XXSP,2013-11-30 06:19:00,
2013-11-29 22:24:00,27.1,15.4,30.17,NE,45,0.0,0.0,61,0.00,,,0.00,WUHU21623XXSP,2013-11-30 06:24:00,
2013-11-29 22:29:00,27.1,15.4,30.17,NW,315,0.0,0.0,61,0.00,,,0.00,WUHU21623XXSP,2013-11-30 06:29:00,
2013-11-29 22:34:00,26.8,15.1,30.16,NW,315,0.0,0.0,61,0.00,,,0.00,WUHU21623XXSP,2013-11-30 06:34:00,
2013-11-29 22:42:00,26.6,14.9,30.16,NNW,337,0.0,0.0,61,0.00,,,0.00,WUHU21623XXSP,2013-11-30 06:42:00,
2013-11-29 22:47:00,26.4,15.1,30.16,NNW,337,0.0,0.0,62,0.00,,,0.00,WUHU21623XXSP,2013-11-30 06:47:00,
2013-11-29 22:53:00,26.4,15.1,30.16,SE,135,0.0,0.0,62,0.00,,,0.00,WUHU21623XXSP,2013-11-30 06:53:00,
2013-11-29 22:59:00,26.2,14.9,30.16,East,90,0.0,0.0,62,0.00,,,0.00,WUHU21623XXSP,2013-11-30 06:59:00,
2013-11-29 23:04:00,26.1,14.8,30.16,NE,45,0.0,0.0,62,0.00,,,0.00,WUHU21623XXSP,2013-11-30 07:04:00,
2013-11-29 23:12:00,25.7,14.4,30.16,NE,45,0.0,0.0,62,0.00,,,0.00,WUHU21623XXSP,2013-11-30 07:12:00,
2013-11-29 23:17:00,25.7,14.4,30.16,SE,135,0.0,0.0,62,0.00,,,0.00,WUHU21623XXSP,2013-11-30 07:17:00,
2013-11-29 23:23:00,25.5,14.3,30.16,SE,135,0.0,0.0,62,0.00,,,0.00,WUHU21623XXSP,2013-11-30 07:23:00,
2013-11-29 23:28:00,25.5,14.3,30.16,NE,45,0.0,0.0,62,0.00,,,0.00,WUHU21623XXSP,2013-11-30 07:28:00,
2013-11-29 23:33:00,25.3,14.4,30.16,NE,45,0.0,0.0,63,0.00,,,0.00,WUHU21623XXSP,2013-11-30 07:33:00,
2013-11-29 23:38:00,25.2,14.3,30.16,ESE,112,0.0,0.0,63,0.00,,,0.00,WUHU21623XXSP,2013-11-30 07:38:00,
2013-11-29 23:43:00,25.2,14.3,30.16,ESE,112,0.0,0.0,63,0.00,,,0.00,WUHU21623XXSP,2013-11-30 07:43:00,
2013-11-29 23:48:00,25.0,14.1,30.16,East,90,0.0,0.0,63,0.00,,,0.00,WUHU21623XXSP,2013-11-30 07:48:00,
2013-11-29 23:53:00,25.0,14.1,30.15,East,90,0.0,0.0,63,0.00,,,0.00,WUHU21623XXSP,2013-11-30 07:53:00,
2013-11-29 23:58:00,24.8,13.9,30.15,East,90,0.0,0.0,63,0.00,,,0.00,WUHU21623XXSP,2013-11-30 07:58:00,